sat.trackr.live / text

‹ back to catalog

STARLINK-32761

NORAD 62749 · 2025-014Q

PAYLOAD ACTIVE UNKNOWN

§ Identity

Operator
Country
US
Launch date
2025-01-21
Launch site
AFETR
Launch vehicle
Mass (kg)
RCS (m²)

Purposes: comms

External: N2YO · Heavens-Above · Gunter

§ Orbital elements

Epoch: 2026-09-21T08:30:10.948032Z

Period
94.27 min
Inclination
43.0016°
Eccentricity
0.0000336
Mean motion
15.27576597 rev/d
Perigee alt
482.8 km
Apogee alt
483.3 km
Semi-major
6,861.2 km
B*
2.1910e-4
RAAN
132.6755°
Arg perigee
318.7566°
Mean anomaly
41.3261°
Rev number
9,314

§ Raw data

STARLINK-327611 62749U 25014Q   26264.35429338  .00005771  00000+0  21910-3 0  99922 62749  43.0016 132.6755 0000336 318.7566  41.3261 15.27576597 93149

JSON: /api/v1/satellites/62749 · /tle

For live sub-satellite position, see the globe view (requires WebGL).

§ Visibility from observer

Set your observer location to see the next 7 days of passes ≥ 10°. The values pass through the URL so the page stays shareable.

No JS? Fill the form by hand. The geolocation button needs JavaScript.